Theta_e
343 349 357 359 361 362 362 362 361 361 362 362 362 361 360 360 360 360 360 359 359 358 356 357 359 360 359 357 357 357 357 358
342 352 352 360 360 362 362 362 362 362 362 362 361 360 360 359 360 360 358 358 357 357 356 357 357 356 355 355 355 356 357 358
349 350 351 359 359 360 361 361 361 362 362 361 361 360 359 359 359 358 357 357 356 356 356 356 356 356 356 356 356 357 357 358
350 347 348 350 356 359 359 360 361 361 361 361 360 359 359 358 357 356 356 355 356 356 356 356 356 357 357 357 358 358 360 358
346 345 345 347 350 351 352 359 360 360 361 360 360 359 358 357 356 355 355 355 355 356 356 357 357 358 357 357 357 358 359 360
342 343 342 342 344 346 347 354 358 358 358 359 357 357 354 348 347 348 351 357 356 356 356 356 356 356 356 357 357 358 359 348
339 341 341 341 341 341 344 352 351 352 352 352 351 353 349 347 345 343 353 358 357 356 357 357 358 359 359 350 352 357 350 350
339 341 340 343 344 340 342 349 348 350 350 350 351 351 348 345 348 349 351 349 352 354 348 352 351 351 347 348 349 349 351 348
339 341 341 342 344 342 345 346 346 347 348 348 350 354 350 348 345 347 349 346 347 346 347 348 347 347 348 349 345 345 346 350
338 340 340 342 345 346 347 346 344 346 347 348 349 352 350 348 352 349 345 344 344 345 343 346 347 348 344 344 343 347 347 348
342 341 340 341 347 344 352 346 343 345 347 348 349 350 352 355 355 348 348 350 343 347 346 347 348 343 346 347 346 345 346 346
350 343 347 345 347 349 354 354 347 346 345 345 348 353 350 353 356 349 349 350 350 352 342 350 349 344 347 348 345 342 347 354
348 353 353 342 346 349 354 354 351 349 344 345 348 353 351 352 355 356 350 350 350 351 351 345 344 342 345 344 344 348 351 351
354 351 352 352 344 347 350 352 351 350 352 348 349 353 352 351 350 352 348 349 355 352 351 348 345 347 343 343 347 348 349 348
347 354 355 355 358 354 348 352 350 347 351 352 351 347 354 350 350 349 350 349 359 351 350 348 349 347 344 340 343 343 346 347
347 343 353 353 358 357 348 344 345 342 345 348 346 352 354 350 350 353 346 349 353 350 349 354 352 349 344 342 335 339 338 342
342 345 340 350 351 355 350 350 346 346 343 344 346 346 351 350 350 348 350 347 351 349 352 353 350 345 346 343 337 333 327 329
337 340 341 350 352 352 350 349 348 348 345 343 344 344 349 350 351 350 349 348 351 352 347 348 349 345 341 344 343 334 326 322
330 334 336 336 332 333 332 339 339 339 339 341 345 347 349 345 348 348 348 351 349 349 347 346 348 346 342 339 342 341 340 333
Wind_Speed
20 21 19 17 14 15 17 17 14 15 14 14 13 12 12 10 10 10 10 9 9 10 10 9 9 8 7 6 4 3 4 5
19 21 18 18 15 14 15 17 14 14 13 13 13 12 11 10 9 9 9 9 8 8 8 8 8 8 6 4 4 5 6 6
22 19 18 18 17 15 14 15 14 14 13 12 11 11 9 9 9 9 9 8 7 7 7 7 7 6 6 5 7 3 10 5
22 20 15 15 15 16 13 14 14 13 13 12 11 10 9 9 8 7 7 7 6 6 6 6 6 6 7 6 8 8 8 4
20 19 17 15 15 15 13 14 13 12 13 12 11 10 9 8 7 7 6 6 6 6 6 7 7 7 8 8 10 9 7 9
17 19 17 17 16 15 16 13 13 14 13 12 11 10 8 6 7 10 7 10 7 6 7 7 7 9 10 10 12 10 9 1
17 19 17 18 16 15 13 14 11 11 9 8 9 9 7 9 9 10 9 8 7 7 7 8 10 11 8 6 6 7 5 5
18 15 19 16 16 16 14 11 7 7 7 7 10 10 10 8 7 7 5 5 5 7 5 7 8 6 8 6 5 7 6 8
18 17 18 18 15 14 12 11 10 9 8 8 9 10 7 5 7 6 7 8 7 6 8 7 6 7 7 4 9 11 2 13
10 16 16 18 14 9 13 12 11 10 10 11 11 12 8 7 5 4 5 8 9 9 8 8 6 6 7 10 17 8 3 10
9 13 12 17 13 13 7 12 11 10 12 10 10 12 12 5 3 5 5 4 4 7 6 5 5 5 7 7 4 5 5 12
3 6 8 9 14 9 6 6 9 9 8 9 9 11 13 8 6 6 4 4 4 3 6 4 9 9 5 0 6 4 3 12
6 6 6 10 14 11 5 5 5 6 9 8 6 8 13 10 7 4 4 4 5 4 3 2 3 3 2 3 5 4 8 11
3 7 7 7 11 15 9 5 7 8 4 6 6 5 12 12 10 5 5 6 6 4 3 2 4 3 4 2 6 6 4 7
10 5 6 5 5 8 10 6 6 7 5 5 5 8 12 10 11 9 5 8 4 3 3 2 2 3 3 5 8 6 5 4
6 8 5 9 5 3 7 9 8 8 6 7 8 7 8 12 11 7 8 7 5 5 5 2 3 2 2 7 6 3 5 5
5 6 12 5 8 6 5 5 7 6 8 8 8 10 7 11 11 10 9 9 7 5 5 3 4 3 3 7 4 3 3 1
12 12 13 7 4 6 8 4 6 7 7 9 8 7 6 7 9 9 10 8 6 5 6 5 5 5 3 3 8 5 3 4
11 10 11 10 11 10 12 9 11 6 10 10 6 3 2 4 2 7 7 6 6 3 5 5 5 5 6 5 3 5 3 5
Wind_Direction
139 128 138 139 140 137 135 137 140 139 138 137 131 133 133 134 129 122 121 122 125 128 132 129 125 129 136 159 179 243 242 230
141 126 141 141 143 138 138 139 143 141 139 139 134 136 139 135 130 125 123 126 133 137 141 141 137 141 151 180 213 243 283 291
124 138 142 143 144 145 145 144 145 143 141 136 137 141 143 141 141 137 136 140 145 149 153 148 150 155 161 198 236 235 256 273
129 132 145 149 147 144 147 144 144 144 143 140 143 145 150 150 150 150 148 155 162 163 164 160 172 176 184 209 243 239 255 332
136 138 152 152 156 154 155 150 148 150 144 140 144 150 157 161 161 167 167 177 179 188 186 181 190 194 195 202 236 248 269 221
146 143 158 160 162 165 156 158 151 158 150 147 153 160 164 192 186 171 189 155 176 204 197 199 201 208 213 207 226 229 238 310
160 152 163 166 164 173 156 150 170 170 174 177 176 171 207 218 184 191 158 163 178 206 222 222 226 226 222 224 215 228 233 77
169 156 163 168 162 176 154 152 173 169 180 187 184 173 216 222 171 143 153 174 188 213 218 212 231 222 214 247 27 239 185 122
166 165 160 162 165 180 148 157 178 179 185 180 193 180 217 226 193 179 175 182 196 182 219 198 219 210 106 103 346 349 226 99
171 166 166 155 162 200 152 162 176 190 189 187 185 179 207 236 166 181 243 190 196 185 208 201 230 150 170 147 193 223 52 137
218 154 171 157 159 200 171 168 177 193 185 191 184 181 194 213 201 195 236 241 220 178 211 198 126 76 303 119 72 325 347 104
232 149 138 155 156 185 197 160 177 189 202 201 187 178 185 193 197 202 231 245 260 282 38 268 138 160 223 194 114 298 8 83
214 142 162 185 158 179 220 185 207 212 212 193 208 164 175 182 187 211 248 234 208 262 184 111 340 109 302 345 112 93 86 83
243 172 173 205 190 179 201 202 217 218 232 225 196 169 178 181 186 205 222 260 198 225 220 226 153 151 162 257 108 77 55 101
10 256 197 234 222 173 190 209 228 234 224 220 228 206 172 184 188 180 221 237 263 190 208 198 208 174 179 180 96 81 82 72
15 17 268 198 248 216 194 203 218 224 239 231 223 238 188 183 187 180 202 246 229 202 194 178 187 181 248 101 91 77 76 87
319 33 6 239 191 220 235 210 220 226 232 249 216 232 199 180 185 187 196 214 235 200 173 189 213 176 179 149 131 133 154 137
37 25 16 337 285 245 257 251 220 240 241 254 251 214 211 189 185 191 194 211 226 242 187 189 173 217 180 229 158 155 147 210
28 27 35 31 39 27 25 353 300 263 249 249 270 266 75 58 197 173 191 184 222 185 266 199 180 195 201 212 253 216 190 131